Morristown, NJ

8:26 AM EDT on June 21, 2018 (GMT -0400)
Morristown Municipal

Weather History for KMMU - October, 2017

Change the Weather History Date:

Sunday, October 8, 2017

  Actual Average Record
Temperature  
Mean Temperature 74 °F -  
Max Temperature 78 °F 67 °F 92 °F (1931)
Min Temperature 69 °F 41 °F 21 °F (1935)
Cooling Degree Days 10    
Growing Degree Days 24 (Base 50)    
Moisture  
Dew Point 70 °F    
Average Humidity 90    
Maximum Humidity 100    
Minimum Humidity 78    
Precipitation  
Precipitation 0.00 in - - ()
Sea Level Pressure  
Sea Level Pressure 29.96 in    
Wind  
Wind Speed 6 mph (SSW)    
Max Wind Speed 13 mph    
Max Gust Speed 21 mph    
Visibility 9 miles    
Events Rain    
Averages and records for this station are not official NWS values.
T = Trace of Precipitation, MM = Missing Value Source: NWS Daily Summary

Daily Weather History Graph

Daily Weather History Graph

Search for Another Location

Airport or City:

Astronomy

Oct. 08, 2017 Rise Set
Actual Time 7:01 AM EDT 6:27 PM EDT
Civil Twilight 6:34 AM EDT 6:55 PM EDT
Nautical Twilight 6:02 AM EDT 7:26 PM EDT
Astronomical Twilight 5:30 AM EDT 7:58 PM EDT
Moon 8:46 PM EDT (10/8) 10:01 AM EDT (10/8)
Length of Visible Light 12h 20m
Length of Day
11h 26m
Waning Gibbous, 89% of the Moon is Illuminated
Oct 8
Waning Gibbous
Oct 12
Last Quarter
Oct 19
New
Oct 27
First Quarter
Nov 4
Full

Hourly Weather History & Observations

Time (EDT) Temp. Dew Point Humidity Pressure Visibility Wind Dir Wind Speed Gust Speed Precip Events Conditions
12:15 AM 71.6 °F 66.2 °F 83% 30.01 in 10.0 mi South 5.8 mph - N/A   Overcast
12:35 AM 71.6 °F 66.2 °F 83% 30.01 in 10.0 mi South 4.6 mph - N/A   Overcast
12:55 AM 71.6 °F 68.0 °F 88% 30.00 in 10.0 mi South 5.8 mph - N/A   Overcast
1:15 AM 71.6 °F 68.0 °F 88% 30.00 in 10.0 mi SSW 5.8 mph - N/A   Overcast
1:35 AM 71.6 °F 68.0 °F 88% 30.00 in 10.0 mi South 4.6 mph - N/A   Overcast
1:55 AM 71.6 °F 68.0 °F 88% 29.99 in 10.0 mi South 4.6 mph - N/A   Overcast
2:15 AM 71.6 °F 68.0 °F 88% 30.00 in 10.0 mi SSW 4.6 mph - N/A   Overcast
2:35 AM 71.6 °F 68.0 °F 88% 29.98 in 10.0 mi South 4.6 mph - N/A   Overcast
2:55 AM 71.6 °F 68.0 °F 88% 29.98 in 10.0 mi SSW 4.6 mph - N/A   Overcast
3:15 AM 71.6 °F 69.8 °F 94% 29.98 in 10.0 mi SSW 5.8 mph - N/A   Overcast
3:35 AM 71.6 °F 69.8 °F 94% 29.97 in 10.0 mi South 5.8 mph - N/A   Overcast
3:55 AM 71.6 °F 69.8 °F 94% 29.96 in 10.0 mi South 6.9 mph - N/A   Overcast
4:15 AM 71.6 °F 69.8 °F 94% 29.95 in 10.0 mi South 4.6 mph - N/A   Overcast
4:35 AM 71.6 °F 69.8 °F 94% 29.95 in 10.0 mi SSW 5.8 mph - N/A   Overcast
4:55 AM 71.6 °F 69.8 °F 94% 29.94 in 10.0 mi SSW 6.9 mph - N/A   Overcast
5:15 AM 71.6 °F 69.8 °F 94% 29.94 in 10.0 mi SSW 6.9 mph - N/A   Overcast
5:35 AM 73.4 °F 69.8 °F 88% 29.94 in 10.0 mi South 5.8 mph - N/A   Overcast
5:55 AM 73.4 °F 69.8 °F 88% 29.94 in 10.0 mi South 4.6 mph - N/A   Overcast
6:15 AM 73.4 °F 69.8 °F 88% 29.93 in 10.0 mi SSW 5.8 mph - N/A   Overcast
6:35 AM 73.4 °F 69.8 °F 88% 29.92 in 10.0 mi South 8.1 mph - N/A   Overcast
6:45 AM 73.4 °F 69.8 °F 88% 29.93 in 10.0 mi SSW 12.7 mph 20.7 mph N/A   Overcast
7:45 AM 73.4 °F 69.8 °F 88% 29.93 in 2.0 mi SSW 10.4 mph - N/A   Overcast
8:50 AM 71.6 °F 71.6 °F 100% 29.93 in 4.0 mi SW 9.2 mph - N/A Rain Light Rain
9:50 AM 73.4 °F 71.6 °F 94% 29.91 in 5.0 mi SSW 9.2 mph - N/A Rain Light Rain
10:50 AM 73.4 °F 71.6 °F 94% 29.94 in 7.0 mi SW 6.9 mph - N/A Rain Light Rain
11:50 AM 75.2 °F 73.4 °F 94% 29.94 in 7.0 mi WSW 11.5 mph - N/A   Overcast
12:30 PM 75.2 °F 73.4 °F 94% 29.94 in 10.0 mi WSW 10.4 mph - N/A   Overcast
12:45 PM 77.0 °F 73.4 °F 89% 29.93 in 10.0 mi SW 9.2 mph - N/A   Overcast
12:50 PM 77.0 °F 73.4 °F 89% 29.93 in 10.0 mi SW 9.2 mph - N/A   Overcast
1:50 PM 77.0 °F 71.6 °F 83% 29.92 in 10.0 mi SW 9.2 mph - N/A   Overcast
2:45 PM 78.8 °F 71.6 °F 78% 29.92 in 10.0 mi SW 11.5 mph - N/A   Overcast
2:46 PM 78.8 °F 71.6 °F 78% 29.92 in 10.0 mi SW 11.5 mph - N/A   Overcast
3:45 PM 78.8 °F 71.6 °F 78% 29.92 in 10.0 mi WSW 11.5 mph - N/A   Scattered Clouds
4:45 PM 78.8 °F 71.6 °F 78% 29.92 in 10.0 mi SW 11.5 mph - N/A   Scattered Clouds
5:45 PM 77.0 °F 71.6 °F 83% 29.94 in 10.0 mi SW 8.1 mph - N/A   Scattered Clouds
6:45 PM 75.2 °F 71.6 °F 89% 29.96 in 10.0 mi SW 10.4 mph - N/A   Scattered Clouds
7:45 PM 75.2 °F 71.6 °F 89% 29.97 in 10.0 mi WSW 9.2 mph - N/A   Scattered Clouds
8:45 PM 75.2 °F 71.6 °F 89% 29.97 in 10.0 mi WSW 9.2 mph - N/A   Clear
9:45 PM 73.4 °F 71.6 °F 94% 29.99 in 10.0 mi SSW 4.6 mph - N/A   Clear
10:35 PM 71.6 °F 71.6 °F 100% 30.00 in 10.0 mi Calm Calm - N/A   Clear
10:55 PM 71.6 °F 71.6 °F 100% 30.01 in 10.0 mi Calm Calm - N/A   Clear
11:15 PM 71.6 °F 69.8 °F 94% 30.00 in 10.0 mi Calm Calm - N/A   Scattered Clouds
11:35 PM 71.6 °F 69.8 °F 94% 30.01 in 10.0 mi Calm Calm - N/A   Clear
11:55 PM 69.8 °F 69.8 °F 100% 30.00 in 7.0 mi Calm Calm - N/A Rain Light Rain